This demonstration page uses our WeatherBlox Daily Observations layout. Learn more.

Left ArrowRight Arrow

Hourly Observations for November 27, 2019

Temp ( °F °C ) Dew Point ( °F °C ) Humidity (%) Winds ( mph kmh ) Pressure ( in mb ) Visibility ( mi km ) Precip ( " mm )
12:53 am 00:53 Cloudy 60 15.6 49 9.4 67 67 SSE 8 13 29.98 1015 10 16 0.00 0.00
1:15 am 01:15 Cloudy 60 15.6 50 10 70 70 S 7 11 29.98 1015 10 16 0.00 0.00
1:53 am 01:53 Cloudy 60 15.6 51 10.6 72 72 S 7 11 29.97 1015 10 16 0.00 0.00
2:53 am 02:53 Mostly Cloudy 60 15.6 53 11.7 78 78 S 7 11 29.95 1014 10 16 0.00 0.00
3:30 am 03:30 Cloudy 59 15 53 11.7 81 81 S 10 17 29.94 1014 10 16 0.00 0.00
3:53 am 03:53 Cloudy 59 15 53 11.7 81 81 S 8 13 29.94 1014 10 16 0.00 0.00
4:53 am 04:53 Cloudy 60 15.6 56 13.3 86 86 SSW 3 6 29.93 1014 10 16 0.00 0.00
5:53 am 05:53 Cloudy 62 16.7 58 14.4 86 86 SSW 8 13 29.93 1014 10 16 0.00 0.00
6:53 am 06:53 Cloudy with Light Rain 63 17.2 59 15 87 87 S 6 9 29.94 1014 10 16 0.00 0.00
7:51 am 07:51 Cloudy with Rain 64 18 63 17 94 94 SW 8 13 29.96 1015 2 3 0.26 6.60
7:53 am 07:53 Cloudy with Rain 64 17.8 62 16.7 93 93 SW 8 13 29.98 1015 2 3 0.26 6.60
8:24 am 08:24 Cloudy with Light Rain 65 18.3 62 16.7 90 90 SW 7 11 29.97 1015 7 11 0.02 0.51
8:53 am 08:53 Cloudy 64 17.8 62 16.7 93 93 SW 6 9 29.99 1016 10 16 0.04 1.02
9:53 am 09:53 Mostly Cloudy 66 18.9 63 17.2 90 90 SSW 10 17 30.01 1016 10 16 0.00 0.00
10:29 am 10:29 Cloudy 66 18.9 63 17.2 90 90 SW 5 7 30.03 1017 10 16 0.00 0.00
10:53 am 10:53 Cloudy 67 19.4 64 17.8 91 91 WSW 6 9 30.04 1017 10 16 0.00 0.00
11:16 am 11:16 Cloudy 68 20 64 17.8 87 87 SW 7 11 30.04 1017 10 16 0.00 0.00
11:53 am 11:53 Cloudy 70 21.1 63 17.2 79 79 NW 12 19 30.04 1017 10 16 0.00 0.00
12:53 pm 12:53 Sunny 73 22.8 54 12.2 51 51 W 12 19 30.02 1017 10 16 0.00 0.00
1:53 pm 13:53 Sunny 74 23.3 51 10.6 45 45 W 8 13 30.02 1017 10 16 0.00 0.00
2:53 pm 14:53 Sunny 74 23.3 50 10 43 43 W 12 19 30.03 1017 10 16 0.00 0.00
3:53 pm 15:53 Sunny 73 22.8 21 -6.1 14 14 W 12 19 30.04 1017 10 16 0.00 0.00
4:53 pm 16:53 Sunny 70 21.1 20 -6.7 15 15 W 13 20 30.07 1018 10 16 0.00 0.00
5:53 pm 17:53 Clear 65 18.3 25 -3.9 22 22 WNW 8 13 30.09 1019 10 16 0.00 0.00
6:53 pm 18:53 Clear 62 16.7 27 -2.8 26 26 W 6 9 30.12 1020 10 16 0.00 0.00
7:53 pm 19:53 Clear 59 15 27 -2.8 29 29 VRB 5 7 30.15 1021 10 16 0.00 0.00
8:53 pm 20:53 Clear 56 13.3 28 -2.2 34 34 VRB 5 7 30.17 1022 10 16 0.00 0.00
9:53 pm 21:53 Clear 53 11.7 29 -1.7 40 40 NW 7 11 30.19 1022 10 16 0.00 0.00
10:53 pm 22:53 Clear 52 11.1 29 -1.7 41 41 VRB 5 7 30.20 1023 10 16 0.00 0.00
11:53 pm 23:53 Clear 51 10.6 29 -1.7 43 43 NW 8 13 30.22 1023 10 16 0.00 0.00

Powered by AerisWeather